Station Historical Data
Daily Summary for October 19, 2017 Units:  Metric    English   Both
« Previous Day
Next Day »
Daily Weekly Monthly Yearly Custom
  High: Low: Average:
Temperature: 18.8 °C 8.3 °C 14.9 °C
Dew Point: 13.3 °C 4.7 °C 8.8 °C
Humidity: 81% 57% 67%
Wind Speed: 30.6km/h 0km/h 9.2km/h
Wind Gust: 45.1km/h - -
Wind- - SW
Pressure: 1019.9 hPa 1015.8 hPa -
Precipitation: 0 mm    
Historical Graphs
 
 
Tabular Data for October 19, 2017
Time Temperature Dew Point Pressure Wind Wind Speed Wind Gust Humidity Rainfall Rate (Hourly)
00:04 10.4 °C 6 °C 1019.5 hPa Calm     74% 0 mm
00:09 10.6 °C 5.9 °C 1019.5 hPa Calm     73% 0 mm
00:14 10.6 °C 5.8 °C 1019.9 hPa Calm     72% 0 mm
00:19 10.8 °C 5.7 °C 1019.9 hPa Calm     71% 0 mm
00:29 11.3 °C 5.8 °C 1019.5 hPa SSW 1.6 km/h 6.4 km/h 69% 0 mm
00:34 11.4 °C 5.7 °C 1019.5 hPa SSW 4.8 km/h 6.4 km/h 68% 0 mm
00:39 11.7 °C 5.7 °C 1019.5 hPa SSW 3.2 km/h 6.4 km/h 67% 0 mm
00:44 11.9 °C 5.9 °C 1019.5 hPa SSW 4.8 km/h 6.4 km/h 67% 0 mm
00:49 12.2 °C 6 °C 1019.5 hPa SW 6.4 km/h 8 km/h 66% 0 mm
00:54 12.6 °C 6 °C 1019.5 hPa South 3.2 km/h 11.3 km/h 64% 0 mm
00:59 12.7 °C 6.1 °C 1019.5 hPa SSW 4.8 km/h 11.3 km/h 64% 0 mm
01:04 12.9 °C 6 °C 1019.5 hPa SSW 4.8 km/h 11.3 km/h 63% 0 mm
01:09 13.1 °C 5.9 °C 1019.5 hPa SW 3.2 km/h 11.3 km/h 62% 0 mm
01:14 13.1 °C 5.9 °C 1019.5 hPa SW 3.2 km/h 8 km/h 62% 0 mm
01:19 13.1 °C 5.9 °C 1019.5 hPa SSW 4.8 km/h 14.5 km/h 62% 0 mm
01:24 13 °C 5.9 °C 1019.5 hPa SSW 4.8 km/h 11.3 km/h 62% 0 mm
01:29 13 °C 5.9 °C 1019.5 hPa SSW 3.2 km/h 11.3 km/h 62% 0 mm
01:34 13.1 °C 6 °C 1019.5 hPa SSW 3.2 km/h 9.7 km/h 62% 0 mm
01:39 13.1 °C 6 °C 1019.9 hPa SSW 3.2 km/h 9.7 km/h 62% 0 mm
01:44 13.2 °C 5.8 °C 1019.9 hPa SW 3.2 km/h 11.3 km/h 61% 0 mm
01:49 13.1 °C 6 °C 1019.5 hPa South 3.2 km/h 6.4 km/h 62% 0 mm
01:54 13 °C 5.9 °C 1019.5 hPa SSW 1.6 km/h 11.3 km/h 62% 0 mm
01:59 13.1 °C 6.2 °C 1019.5 hPa SSW 4.8 km/h 12.9 km/h 63% 0 mm
02:04 13.2 °C 6.1 °C 1019.9 hPa SW 4.8 km/h 12.9 km/h 62% 0 mm
02:09 13.3 °C 6.4 °C 1019.9 hPa SW 4.8 km/h 14.5 km/h 63% 0 mm
02:14 13.6 °C 6.4 °C 1019.9 hPa SSW 4.8 km/h 14.5 km/h 62% 0 mm
02:19 13.7 °C 6.6 °C 1019.5 hPa South 9.7 km/h 14.5 km/h 62% 0 mm
02:24 13.8 °C 6.4 °C 1019.9 hPa SSW 11.3 km/h 16.1 km/h 61% 0 mm
02:29 13.7 °C 6.3 °C 1019.9 hPa SSW 6.4 km/h 16.1 km/h 61% 0 mm
02:34 13.8 °C 6.4 °C 1019.5 hPa SSW 6.4 km/h 14.5 km/h 61% 0 mm
02:39 13.7 °C 6.3 °C 1019.5 hPa SSW 6.4 km/h 14.5 km/h 61% 0 mm
02:44 13.7 °C 6.3 °C 1019.5 hPa SSW 6.4 km/h 14.5 km/h 61% 0 mm
02:49 13.7 °C 6.3 °C 1019.5 hPa South 3.2 km/h 17.7 km/h 61% 0 mm
02:54 13.7 °C 6.3 °C 1019.9 hPa SSW 4.8 km/h 14.5 km/h 61% 0 mm
02:59 13.6 °C 6.4 °C 1019.5 hPa SSW 6.4 km/h 12.9 km/h 62% 0 mm
03:04 13.4 °C 6.3 °C 1019.5 hPa SSW 4.8 km/h 11.3 km/h 62% 0 mm
03:09 13.3 °C 6.2 °C 1019.5 hPa SSW 6.4 km/h 12.9 km/h 62% 0 mm
03:14 13.1 °C 6 °C 1019.5 hPa SSW 6.4 km/h 14.5 km/h 62% 0 mm
03:19 12.9 °C 5.8 °C 1019.5 hPa SSW 4.8 km/h 11.3 km/h 62% 0 mm
03:24 12.9 °C 5.8 °C 1019.5 hPa SSW 8 km/h 12.9 km/h 62% 0 mm
03:29 12.9 °C 5.8 °C 1019.2 hPa SW 8 km/h 14.5 km/h 62% 0 mm
03:34 12.9 °C 5.8 °C 1019.2 hPa SSW 3.2 km/h 12.9 km/h 62% 0 mm
03:39 12.9 °C 5.8 °C 1019.2 hPa SSW 6.4 km/h 12.9 km/h 62% 0 mm
03:44 12.8 °C 5.7 °C 1018.8 hPa SSW 4.8 km/h 12.9 km/h 62% 0 mm
03:49 12.9 °C 5.6 °C 1018.8 hPa SSW 6.4 km/h 14.5 km/h 61% 0 mm
03:54 13.1 °C 5.5 °C 1018.8 hPa SSW 3.2 km/h 17.7 km/h 60% 0 mm
03:59 13.2 °C 5.6 °C 1018.8 hPa SSW 6.4 km/h 17.7 km/h 60% 0 mm
04:04 13.2 °C 5.6 °C 1018.8 hPa SSW 9.7 km/h 12.9 km/h 60% 0 mm
04:09 13.1 °C 5.5 °C 1018.8 hPa SSW 6.4 km/h 17.7 km/h 60% 0 mm
04:14 13.3 °C 5.4 °C 1018.8 hPa SSW 12.9 km/h 14.5 km/h 59% 0 mm
04:19 13.4 °C 5.6 °C 1018.8 hPa SSW 3.2 km/h 14.5 km/h 59% 0 mm
04:24 13.4 °C 5.3 °C 1018.8 hPa Calm   14.5 km/h 58% 0 mm
04:29 13.6 °C 5.4 °C 1018.8 hPa SSW 8 km/h 16.1 km/h 58% 0 mm
04:34 13.6 °C 5.4 °C 1018.5 hPa South 8 km/h 14.5 km/h 58% 0 mm
04:39 13.6 °C 5.5 °C 1018.5 hPa SSW 8 km/h 14.5 km/h 58% 0 mm
04:44 13.6 °C 5.4 °C 1018.5 hPa SSW 6.4 km/h 16.1 km/h 58% 0 mm
04:49 13.6 °C 5.4 °C 1018.5 hPa SSW 6.4 km/h 16.1 km/h 58% 0 mm
04:54 13.5 °C 5.4 °C 1018.5 hPa SSW 6.4 km/h 16.1 km/h 58% 0 mm
04:59 13.4 °C 5.3 °C 1018.5 hPa SSW 6.4 km/h 16.1 km/h 58% 0 mm
05:04 13.4 °C 5.3 °C 1018.5 hPa South 8 km/h 14.5 km/h 58% 0 mm
05:09 13.5 °C 5.6 °C 1018.5 hPa SSW 8 km/h 20.9 km/h 59% 0 mm
05:14 13.5 °C 5.4 °C 1018.5 hPa SW 3.2 km/h 12.9 km/h 58% 0 mm
05:19 13.4 °C 5.6 °C 1018.5 hPa South 8 km/h 14.5 km/h 59% 0 mm
05:24 13.3 °C 5.5 °C 1018.5 hPa SSW 4.8 km/h 12.9 km/h 59% 0 mm
05:29 13.2 °C 5.6 °C 1018.5 hPa SSW 6.4 km/h 11.3 km/h 60% 0 mm
05:34 13.1 °C 5.5 °C 1018.5 hPa SSW 3.2 km/h 12.9 km/h 60% 0 mm
05:39 13.1 °C 5.4 °C 1018.5 hPa WSW 3.2 km/h 14.5 km/h 60% 0 mm
05:44 13 °C 5.7 °C 1018.5 hPa SSW 4.8 km/h 14.5 km/h 61% 0 mm
05:49 13 °C 5.7 °C 1018.5 hPa SSW 4.8 km/h 11.3 km/h 61% 0 mm
05:54 12.9 °C 5.6 °C 1018.5 hPa South 6.4 km/h 11.3 km/h 61% 0 mm
05:59 12.8 °C 5.5 °C 1018.5 hPa SSW 4.8 km/h 11.3 km/h 61% 0 mm
06:04 12.7 °C 5.6 °C 1018.5 hPa SSW 4.8 km/h 9.7 km/h 62% 0 mm
06:09 12.7 °C 5.6 °C 1018.5 hPa SSW 6.4 km/h 14.5 km/h 62% 0 mm
06:14 12.8 °C 5.7 °C 1018.5 hPa SSW 4.8 km/h 17.7 km/h 62% 0 mm
06:19 12.7 °C 5.6 °C 1018.2 hPa WSW 4.8 km/h 11.3 km/h 62% 0 mm
06:24 12.7 °C 5.6 °C 1018.2 hPa SSW 6.4 km/h 11.3 km/h 62% 0 mm
06:29 12.7 °C 5.8 °C 1017.8 hPa SSW 4.8 km/h 11.3 km/h 63% 0 mm
06:34 12.7 °C 5.8 °C 1017.8 hPa South 8 km/h 14.5 km/h 63% 0 mm
06:39 12.7 °C 5.8 °C 1017.8 hPa SSW 3.2 km/h 14.5 km/h 63% 0 mm
06:44 12.6 °C 5.7 °C 1017.8 hPa SSW 6.4 km/h 14.5 km/h 63% 0 mm
06:49 12.6 °C 5.7 °C 1017.8 hPa SSW 4.8 km/h 11.3 km/h 63% 0 mm
06:54 12.6 °C 5.7 °C 1017.8 hPa SSW 4.8 km/h 12.9 km/h 63% 0 mm
06:59 12.6 °C 5.9 °C 1017.8 hPa SW 11.3 km/h 11.3 km/h 64% 0 mm
07:04 12.6 °C 6 °C 1018.2 hPa SW 6.4 km/h 12.9 km/h 64% 0 mm
07:09 12.6 °C 5.9 °C 1018.2 hPa SW 1.6 km/h 11.3 km/h 64% 0 mm
07:14 12.6 °C 5.9 °C 1018.2 hPa SW 4.8 km/h 14.5 km/h 64% 0 mm
07:19 12.7 °C 6.1 °C 1018.2 hPa WSW 11.3 km/h 12.9 km/h 64% 0 mm
07:24 12.8 °C 6.1 °C 1018.5 hPa SW 6.4 km/h 14.5 km/h 64% 0 mm
07:29 12.8 °C 6.1 °C 1018.5 hPa SW 6.4 km/h 14.5 km/h 64% 0 mm
07:34 12.8 °C 6.1 °C 1018.2 hPa SW 4.8 km/h 17.7 km/h 64% 0 mm
07:39 12.9 °C 6.2 °C 1018.2 hPa South 6.4 km/h 14.5 km/h 64% 0 mm
07:44 12.8 °C 6.2 °C 1018.2 hPa SSW 6.4 km/h 11.3 km/h 64% 0 mm
07:49 12.7 °C 6.3 °C 1018.2 hPa SSW 6.4 km/h 16.1 km/h 65% 0 mm
07:54 12.8 °C 6.3 °C 1018.5 hPa SW 4.8 km/h 14.5 km/h 65% 0 mm
07:59 12.8 °C 6.3 °C 1018.5 hPa SSW 11.3 km/h 11.3 km/h 65% 0 mm
08:04 12.9 °C 6.4 °C 1018.2 hPa SSW 4.8 km/h 11.3 km/h 65% 0 mm
08:09 13 °C 6.6 °C 1018.2 hPa Calm   11.3 km/h 65% 0 mm
08:14 13.1 °C 6.7 °C 1017.8 hPa SSW 6.4 km/h 12.9 km/h 65% 0 mm
08:19 13.3 °C 6.9 °C 1017.8 hPa SSW 6.4 km/h 14.5 km/h 65% 0 mm
08:24 13.4 °C 6.9 °C 1017.8 hPa South 8 km/h 16.1 km/h 65% 0 mm
08:29 13.6 °C 6.9 °C 1017.8 hPa SW 4.8 km/h 16.1 km/h 64% 0 mm
08:34 13.8 °C 7.1 °C 1017.8 hPa SSW 12.9 km/h 22.5 km/h 64% 0 mm
08:39 13.9 °C 7.2 °C 1018.2 hPa SW 8 km/h 22.5 km/h 64% 0 mm
08:44 14.1 °C 7.1 °C 1018.2 hPa SW 8 km/h 19.3 km/h 63% 0 mm
08:49 14.2 °C 7.2 °C 1018.2 hPa South 6.4 km/h 20.9 km/h 63% 0 mm
08:54 14.3 °C 7.4 °C 1018.5 hPa SW 8 km/h 22.5 km/h 63% 0 mm
08:59 14.5 °C 7.6 °C 1018.2 hPa SW 8 km/h 22.5 km/h 63% 0 mm
09:04 14.4 °C 7.4 °C 1018.2 hPa South 6.4 km/h 17.7 km/h 63% 0 mm
09:09 14.2 °C 7.5 °C 1017.8 hPa SW 19.3 km/h 30.6 km/h 64% 0 mm
09:14 14.3 °C 7.3 °C 1018.2 hPa SW 9.7 km/h 30.6 km/h 63% 0 mm
09:19 14.4 °C 7.7 °C 1018.2 hPa SSW 8 km/h 14.5 km/h 64% 0 mm
09:24 14.8 °C 8.1 °C 1018.2 hPa SW 17.7 km/h 22.5 km/h 64% 0 mm
09:29 14.9 °C 7.7 °C 1018.2 hPa SW 11.3 km/h 24.1 km/h 62% 0 mm
09:34 15.2 °C 7.9 °C 1017.8 hPa SW 17.7 km/h 24.1 km/h 62% 0 mm
09:39 15.5 °C 8.2 °C 1017.8 hPa SW 11.3 km/h 24.1 km/h 62% 0 mm
09:44 15.9 °C 8.1 °C 1018.2 hPa SW 9.7 km/h 24.1 km/h 60% 0 mm
09:49 16.1 °C 8.3 °C 1017.8 hPa West 8 km/h 22.5 km/h 60% 0 mm
09:54 16.3 °C 8.6 °C 1017.8 hPa SW 11.3 km/h 22.5 km/h 60% 0 mm
09:59 16.3 °C 8.6 °C 1017.8 hPa WSW 8 km/h 22.5 km/h 60% 0 mm
10:04 16.2 °C 8.2 °C 1018.2 hPa WSW 11.3 km/h 32.2 km/h 59% 0 mm
10:09 15.9 °C 8.4 °C 1018.2 hPa SW 12.9 km/h 32.2 km/h 61% 0 mm
10:14 15.9 °C 8.4 °C 1018.2 hPa SW 11.3 km/h 27.4 km/h 61% 0 mm
10:19 15.9 °C 8.4 °C 1017.8 hPa SW 17.7 km/h 25.7 km/h 61% 0 mm
10:24 16 °C 8.7 °C 1017.8 hPa WSW 3.2 km/h 20.9 km/h 62% 0 mm
10:29 16.2 °C 8.9 °C 1017.8 hPa SW 11.3 km/h 20.9 km/h 62% 0 mm
10:34 16.6 °C 9.6 °C 1017.8 hPa West 6.4 km/h 19.3 km/h 63% 0 mm
10:39 16.6 °C 9.3 °C 1017.8 hPa SW 11.3 km/h 20.9 km/h 62% 0 mm
10:44 16.9 °C 9.6 °C 1017.5 hPa SW 6.4 km/h 30.6 km/h 62% 0 mm
10:49 17.2 °C 9.3 °C 1017.5 hPa WSW 11.3 km/h 24.1 km/h 60% 0 mm
10:54 16.9 °C 9.4 °C 1017.5 hPa SW 12.9 km/h 27.4 km/h 61% 0 mm
10:59 17.3 °C 9.4 °C 1017.8 hPa SW 12.9 km/h 30.6 km/h 60% 0 mm
11:04 17.4 °C 9.3 °C 1017.5 hPa SW 14.5 km/h 30.6 km/h 59% 0 mm
11:09 17.6 °C 9.7 °C 1017.2 hPa SW 16.1 km/h 33.8 km/h 60% 0 mm
11:14 17.8 °C 9.9 °C 1017.2 hPa WSW 12.9 km/h 33.8 km/h 60% 0 mm
11:19 17.7 °C 9.8 °C 1017.2 hPa WSW 20.9 km/h 33.8 km/h 60% 0 mm
11:24 18.1 °C 10.2 °C 1017.2 hPa SW 16.1 km/h 33.8 km/h 60% 0 mm
11:29 18.4 °C 10.2 °C 1017.2 hPa SW 14.5 km/h 27.4 km/h 59% 0 mm
11:34 18.4 °C 9.7 °C 1017.5 hPa SW 16.1 km/h 37 km/h 57% 0 mm
11:39 18.4 °C 10 °C 1017.5 hPa WSW 16.1 km/h 33.8 km/h 58% 0 mm
11:44 18.5 °C 10.1 °C 1017.5 hPa WSW 19.3 km/h 30.6 km/h 58% 0 mm
11:49 18.6 °C 10.1 °C 1017.8 hPa WSW 30.6 km/h 35.4 km/h 58% 0 mm
11:54 18.4 °C 10.6 °C 1017.5 hPa WSW 16.1 km/h 33.8 km/h 60% 0 mm
11:59 18.5 °C 10.6 °C 1017.5 hPa WSW 17.7 km/h 33.8 km/h 60% 0 mm
12:04 18.7 °C 10.7 °C 1017.5 hPa WSW 16.1 km/h 32.2 km/h 60% 0 mm
12:09 18.5 °C 10.8 °C 1017.8 hPa WSW 16.1 km/h 33.8 km/h 61% 0 mm
12:14 18.5 °C 10.6 °C 1017.5 hPa SSW 27.4 km/h 38.6 km/h 60% 0 mm
12:19 18.3 °C 10.9 °C 1017.5 hPa WNW 14.5 km/h 41.8 km/h 62% 0 mm
12:24 18.2 °C 10.8 °C 1017.5 hPa West 16.1 km/h 40.2 km/h 62% 0 mm
12:29 18.1 °C 10.9 °C 1017.5 hPa WSW 19.3 km/h 40.2 km/h 63% 0 mm
12:34 18.3 °C 11.4 °C 1017.2 hPa WSW 17.7 km/h 38.6 km/h 64% 0 mm
12:39 18.3 °C 10.9 °C 1017.5 hPa WSW 17.7 km/h 38.6 km/h 62% 0 mm
12:44 18.3 °C 11.3 °C 1017.5 hPa SSW 6.4 km/h 33.8 km/h 64% 0 mm
12:49 18.4 °C 11.4 °C 1017.5 hPa SW 17.7 km/h 38.6 km/h 64% 0 mm
12:54 18.2 °C 11.3 °C 1017.2 hPa South 17.7 km/h 29 km/h 64% 0 mm
12:59 18.4 °C 11.7 °C 1017.2 hPa SW 19.3 km/h 35.4 km/h 65% 0 mm
13:04 18.4 °C 11.4 °C 1017.2 hPa WSW 17.7 km/h 35.4 km/h 64% 0 mm
13:09 18.4 °C 11.9 °C 1017.2 hPa WSW 16.1 km/h 33.8 km/h 66% 0 mm
13:14 18.2 °C 11.3 °C 1017.2 hPa WSW 17.7 km/h 45.1 km/h 64% 0 mm
13:19 18.1 °C 11.6 °C 1017.2 hPa SW 19.3 km/h 45.1 km/h 66% 0 mm
13:24 18.1 °C 11.8 °C 1017.2 hPa WSW 20.9 km/h 41.8 km/h 67% 0 mm
13:29 18.2 °C 11.7 °C 1016.8 hPa WSW 19.3 km/h 40.2 km/h 66% 0 mm
13:34 18.4 °C 12.4 °C 1016.8 hPa SSW 19.3 km/h 30.6 km/h 68% 0 mm
13:39 18.6 °C 12.1 °C 1016.8 hPa WSW 22.5 km/h 33.8 km/h 66% 0 mm
13:44 18.3 °C 12.3 °C 1016.8 hPa NW 12.9 km/h 38.6 km/h 68% 0 mm
13:49 18.4 °C 12 °C 1016.8 hPa WSW 24.1 km/h 32.2 km/h 66% 0 mm
13:54 18.1 °C 11.8 °C 1016.8 hPa West 11.3 km/h 40.2 km/h 67% 0 mm
13:59 18.2 °C 12.2 °C 1016.5 hPa WSW 30.6 km/h 33.8 km/h 68% 0 mm
14:04 18.1 °C 11.8 °C 1016.5 hPa West 14.5 km/h 43.5 km/h 67% 0 mm
14:09 18.1 °C 12.1 °C 1016.5 hPa SW 20.9 km/h 43.5 km/h 68% 0 mm
14:14 18.3 °C 12.3 °C 1016.5 hPa WSW 19.3 km/h 35.4 km/h 68% 0 mm
14:19 18.3 °C 12.1 °C 1016.1 hPa WSW 19.3 km/h 37 km/h 67% 0 mm
14:24 18.2 °C 12.2 °C 1016.1 hPa WSW 20.9 km/h 37 km/h 68% 0 mm
14:29 18.2 °C 12.2 °C 1016.1 hPa WSW 19.3 km/h 37 km/h 68% 0 mm
14:34 18.5 °C 12.7 °C 1016.1 hPa WSW 17.7 km/h 32.2 km/h 69% 0 mm
14:39 18.4 °C 12.2 °C 1016.1 hPa WSW 16.1 km/h 37 km/h 67% 0 mm
14:44 18.6 °C 12.3 °C 1016.1 hPa WSW 14.5 km/h 38.6 km/h 67% 0 mm
14:49 18.7 °C 12.7 °C 1016.1 hPa West 11.3 km/h 37 km/h 68% 0 mm
14:54 18.7 °C 12.9 °C 1016.1 hPa West 12.9 km/h 37 km/h 69% 0 mm
14:59 18.8 °C 12.7 °C 1015.8 hPa SSW 17.7 km/h 30.6 km/h 68% 0 mm
15:04 18.7 °C 12.9 °C 1015.8 hPa West 9.7 km/h 29 km/h 69% 0 mm
15:09 18.7 °C 12.4 °C 1015.8 hPa SSW 8 km/h 27.4 km/h 67% 0 mm
15:14 18.7 °C 12.4 °C 1015.8 hPa WSW 14.5 km/h 35.4 km/h 67% 0 mm
15:19 18.8 °C 12.5 °C 1015.8 hPa WSW 14.5 km/h 38.6 km/h 67% 0 mm
15:24 18.7 °C 12.7 °C 1015.8 hPa WSW 16.1 km/h 38.6 km/h 68% 0 mm
15:29 18.8 °C 12.7 °C 1015.8 hPa WSW 16.1 km/h 37 km/h 68% 0 mm
15:34 18.7 °C 12.7 °C 1015.8 hPa WSW 16.1 km/h 35.4 km/h 68% 0 mm
15:39 18.6 °C 12.8 °C 1015.8 hPa West 14.5 km/h 35.4 km/h 69% 0 mm
15:44 18.6 °C 13 °C 1016.1 hPa West 30.6 km/h 33.8 km/h 70% 0 mm
15:49 18.3 °C 12.9 °C 1016.1 hPa WNW 11.3 km/h 32.2 km/h 71% 0 mm
15:54 18.2 °C 12.8 °C 1016.1 hPa WSW 11.3 km/h 38.6 km/h 71% 0 mm
15:59 18.3 °C 13.2 °C 1015.8 hPa WSW 17.7 km/h 29 km/h 72% 0 mm
16:04 18.3 °C 13.2 °C 1016.1 hPa WSW 12.9 km/h 35.4 km/h 72% 0 mm
16:09 18.2 °C 13.3 °C 1016.1 hPa West 14.5 km/h 27.4 km/h 73% 0 mm
16:14 18.2 °C 13.2 °C 1016.1 hPa WNW 12.9 km/h 30.6 km/h 73% 0 mm
16:19 18 °C 13.1 °C 1016.1 hPa WSW 16.1 km/h 30.6 km/h 73% 0 mm
16:24 18 °C 13.1 °C 1016.1 hPa WSW 16.1 km/h 35.4 km/h 73% 0 mm
16:29 17.9 °C 13 °C 1016.1 hPa WSW 17.7 km/h 35.4 km/h 73% 0 mm
16:34 17.9 °C 13 °C 1016.1 hPa WSW 16.1 km/h 33.8 km/h 73% 0 mm
16:39 17.8 °C 12.9 °C 1016.1 hPa WSW 17.7 km/h 37 km/h 73% 0 mm
16:44 17.8 °C 12.9 °C 1016.1 hPa WNW 14.5 km/h 32.2 km/h 73% 0 mm
16:49 17.8 °C 12.9 °C 1016.1 hPa WSW 16.1 km/h 33.8 km/h 73% 0 mm
16:54 17.9 °C 12.8 °C 1016.5 hPa West 12.9 km/h 30.6 km/h 72% 0 mm
16:59 17.8 °C 12.7 °C 1016.5 hPa WSW 30.6 km/h 32.2 km/h 72% 0 mm
17:04 17.8 °C 12.5 °C 1016.5 hPa NW 19.3 km/h 33.8 km/h 71% 0 mm
17:09 17.8 °C 12.4 °C 1016.5 hPa West 14.5 km/h 32.2 km/h 71% 0 mm
17:14 17.8 °C 12.2 °C 1016.5 hPa WSW 14.5 km/h 33.8 km/h 70% 0 mm
17:19 17.7 °C 12.2 °C 1016.5 hPa West 12.9 km/h 29 km/h 70% 0 mm
17:24 17.5 °C 12.2 °C 1016.5 hPa WSW 16.1 km/h 30.6 km/h 71% 0 mm
17:29 17.4 °C 12.3 °C 1016.5 hPa WSW 16.1 km/h 33.8 km/h 72% 0 mm
17:34 17.3 °C 12.2 °C 1016.5 hPa WSW 16.1 km/h 33.8 km/h 72% 0 mm
17:39 17.2 °C 11.9 °C 1016.5 hPa West 14.5 km/h 30.6 km/h 71% 0 mm
17:44 17.2 °C 12.1 °C 1016.8 hPa West 14.5 km/h 30.6 km/h 72% 0 mm
17:49 17 °C 11.9 °C 1016.8 hPa West 12.9 km/h 30.6 km/h 72% 0 mm
17:54 16.9 °C 12.1 °C 1016.8 hPa WSW 12.9 km/h 25.7 km/h 73% 0 mm
17:59 16.8 °C 12.2 °C 1016.8 hPa SW 11.3 km/h 30.6 km/h 74% 0 mm
18:04 16.7 °C 12.3 °C 1016.8 hPa WNW 9.7 km/h 20.9 km/h 75% 0 mm
18:09 16.7 °C 12.3 °C 1017.2 hPa WSW 16.1 km/h 27.4 km/h 75% 0 mm
18:14 16.6 °C 12.3 °C 1017.2 hPa WSW 11.3 km/h 22.5 km/h 76% 0 mm
18:19 16.6 °C 12.3 °C 1017.2 hPa SW 14.5 km/h 19.3 km/h 76% 0 mm
18:24 16.4 °C 12.2 °C 1017.2 hPa WSW 4.8 km/h 20.9 km/h 76% 0 mm
18:29 16.3 °C 12.3 °C 1017.2 hPa WSW 9.7 km/h 24.1 km/h 77% 0 mm
18:34 16.3 °C 12.3 °C 1017.2 hPa WSW 9.7 km/h 24.1 km/h 77% 0 mm
18:39 16.3 °C 12.3 °C 1017.5 hPa WSW 9.7 km/h 22.5 km/h 77% 0 mm
18:44 16.3 °C 12.3 °C 1017.5 hPa WSW 11.3 km/h 22.5 km/h 77% 0 mm
18:49 16.3 °C 12.3 °C 1017.5 hPa WSW 11.3 km/h 22.5 km/h 77% 0 mm
18:54 16.3 °C 12.3 °C 1017.5 hPa WSW 9.7 km/h 20.9 km/h 77% 0 mm
18:59 16.3 °C 12.2 °C 1017.5 hPa WSW 8 km/h 20.9 km/h 77% 0 mm
19:04 16.2 °C 12.4 °C 1017.5 hPa SW 6.4 km/h 17.7 km/h 78% 0 mm
19:09 16.2 °C 12.3 °C 1017.8 hPa West 14.5 km/h 14.5 km/h 78% 0 mm
19:14 16.2 °C 12.3 °C 1017.8 hPa WSW 6.4 km/h 19.3 km/h 78% 0 mm
19:19 16.1 °C 12.3 °C 1017.8 hPa WSW 11.3 km/h 19.3 km/h 78% 0 mm
19:24 16.1 °C 12.3 °C 1017.8 hPa West 6.4 km/h 14.5 km/h 78% 0 mm
19:29 16 °C 12.2 °C 1017.8 hPa West 4.8 km/h 19.3 km/h 78% 0 mm
19:34 16 °C 12.3 °C 1017.8 hPa West 6.4 km/h 17.7 km/h 79% 0 mm
19:39 15.9 °C 12.1 °C 1018.2 hPa West 8 km/h 17.7 km/h 78% 0 mm
19:44 15.9 °C 12.2 °C 1018.2 hPa West 8 km/h 16.1 km/h 79% 0 mm
19:49 15.9 °C 12.2 °C 1018.2 hPa West 8 km/h 14.5 km/h 79% 0 mm
19:54 15.8 °C 12.2 °C 1018.5 hPa West 8 km/h 14.5 km/h 79% 0 mm
19:59 15.8 °C 12.3 °C 1018.5 hPa West 8 km/h 16.1 km/h 80% 0 mm
20:04 15.7 °C 12.2 °C 1018.5 hPa West 8 km/h 16.1 km/h 80% 0 mm
20:09 15.6 °C 12.2 °C 1018.5 hPa West 8 km/h 16.1 km/h 80% 0 mm
20:14 15.5 °C 12.1 °C 1018.8 hPa West 12.9 km/h 14.5 km/h 80% 0 mm
20:19 15.3 °C 12.1 °C 1018.8 hPa West 3.2 km/h 14.5 km/h 81% 0 mm
20:24 15.2 °C 12 °C 1018.8 hPa West 6.4 km/h 14.5 km/h 81% 0 mm
20:29 15.1 °C 11.8 °C 1018.8 hPa West 9.7 km/h 12.9 km/h 81% 0 mm
20:34 14.9 °C 11.4 °C 1018.8 hPa West 6.4 km/h 14.5 km/h 80% 0 mm
20:39 14.8 °C 11.2 °C 1018.8 hPa WNW 3.2 km/h 14.5 km/h 79% 0 mm
20:44 14.7 °C 10.9 °C 1018.8 hPa WNW 6.4 km/h 14.5 km/h 78% 0 mm
20:49 14.6 °C 10.6 °C 1019.2 hPa WNW 4.8 km/h 11.3 km/h 77% 0 mm
20:54 14.4 °C 10.1 °C 1019.2 hPa West 4.8 km/h 9.7 km/h 75% 0 mm
20:59 14.4 °C 9.6 °C 1019.2 hPa West 4.8 km/h 9.7 km/h 73% 0 mm
21:04 14.3 °C 9.2 °C 1019.2 hPa West 9.7 km/h 9.7 km/h 71% 0 mm
21:09 14.3 °C 8.9 °C 1019.5 hPa West 4.8 km/h 12.9 km/h 70% 0 mm
21:14 14.3 °C 8.7 °C 1019.5 hPa West 4.8 km/h 12.9 km/h 69% 0 mm
21:19 14.2 °C 8.2 °C 1019.5 hPa West 1.6 km/h 9.7 km/h 67% 0 mm
21:24 14.2 °C 7.9 °C 1019.5 hPa WNW 4.8 km/h 6.4 km/h 66% 0 mm
21:29 14.2 °C 7.7 °C 1019.5 hPa West 3.2 km/h 11.3 km/h 65% 0 mm
21:34 14.2 °C 7.7 °C 1019.5 hPa WNW 4.8 km/h 9.7 km/h 65% 0 mm
21:39 13.9 °C 7.4 °C 1019.5 hPa West 3.2 km/h 6.4 km/h 65% 0 mm
21:44 13.8 °C 7.6 °C 1019.5 hPa West 1.6 km/h 6.4 km/h 66% 0 mm
21:49 13.7 °C 7.7 °C 1019.5 hPa West 1.6 km/h 6.4 km/h 67% 0 mm
21:54 13.5 °C 7.5 °C 1019.5 hPa West 1.6 km/h 6.4 km/h 67% 0 mm
21:59 13.3 °C 7.5 °C 1019.5 hPa Calm   6.4 km/h 68% 0 mm
22:04 13.2 °C 7.4 °C 1019.5 hPa Calm   3.2 km/h 68% 0 mm
22:09 12.8 °C 7.2 °C 1019.5 hPa Calm   3.2 km/h 69% 0 mm
22:14 12.3 °C 7.2 °C 1019.5 hPa Calm     71% 0 mm
22:19 11.8 °C 6.9 °C 1019.5 hPa Calm     72% 0 mm
22:24 11.4 °C 6.9 °C 1019.5 hPa Calm     74% 0 mm
22:29 11.2 °C 6.9 °C 1019.5 hPa Calm     75% 0 mm
22:34 10.9 °C 6.8 °C 1019.5 hPa Calm     76% 0 mm
22:39 10.8 °C 6.8 °C 1019.5 hPa Calm     76% 0 mm
22:44 10.6 °C 6.7 °C 1019.5 hPa Calm     77% 0 mm
22:49 10.3 °C 6.5 °C 1019.5 hPa Calm     77% 0 mm
22:54 10.1 °C 6.4 °C 1019.5 hPa Calm     78% 0 mm
22:59 9.9 °C 6.3 °C 1019.5 hPa Calm     78% 0 mm
23:04 9.8 °C 6.2 °C 1019.5 hPa Calm     78% 0 mm
23:09 9.6 °C 6.2 °C 1019.9 hPa Calm     79% 0 mm
23:14 9.5 °C 5.8 °C 1019.9 hPa Calm     78% 0 mm
23:19 9.3 °C 5.8 °C 1019.5 hPa Calm     79% 0 mm
23:24 9.2 °C 5.7 °C 1019.5 hPa Calm     79% 0 mm
23:29 9.1 °C 5.6 °C 1019.5 hPa Calm     79% 0 mm
23:34 8.9 °C 5.5 °C 1019.5 hPa Calm     79% 0 mm
23:39 8.8 °C 5.2 °C 1019.5 hPa Calm     78% 0 mm
23:44 8.9 °C 5.3 °C 1019.9 hPa Calm     78% 0 mm
23:49 8.8 °C 4.9 °C 1019.9 hPa Calm     77% 0 mm
23:54 8.6 °C 4.9 °C 1019.9 hPa Calm     78% 0 mm
23:59 8.3 °C 4.7 °C 1019.9 hPa Calm     78% 0 mm
Buffalo, New York, USA
Compliments of Weather Underground - 2.5 mb